When you browse on this site, cookies collect data to enhance your experience and personalize the content and advertising you see.
Visit our Privacy Policy to learn more. By continuing to use the site, you agree to this use of cookies and data.

Hourly Weather Ho Chi Minh

Today, 6 July, Monday

Time Temperature Precipitation Wind Pressure Humidity
00:00 +28°C° 0 mm 1 mps 754 mmHg 85%
01:00 +28°C° 0 mm 1 mps 754 mmHg 85%
02:00 +28°C° 0 mm 1 mps 754 mmHg 86%
03:00 +28°C° 0 mm 1 mps 754 mmHg 86%
04:00 +28°C° 0 mm 1 mps 753 mmHg 86%
05:00 +28°C° 0 mm 1 mps 754 mmHg 85%
06:00 +29°C° 0 mm 1 mps 754 mmHg 84%
07:00 +29°C° 0 mm 1 mps 755 mmHg 83%
08:00 +30°C° 0.8 mm 1 mps 755 mmHg 77%
09:00 +32°C° 0.8 mm 2 mps 755 mmHg 71%
10:00 +34°C° 0.8 mm 2 mps 755 mmHg 65%
11:00 +34°C° 0.9 mm 2 mps 754 mmHg 64%
12:00 +35°C° 0.9 mm 3 mps 754 mmHg 64%
13:00 +35°C° 0 mm 3 mps 754 mmHg 63%
14:00 +35°C° 0.9 mm 4 mps 754 mmHg 65%
15:00 +34°C° 0.9 mm 4 mps 753 mmHg 67%
16:00 +34°C° 0.9 mm 5 mps 752 mmHg 69%
17:00 +32°C° 0.9 mm 4 mps 753 mmHg 73%
18:00 +30°C° 0.9 mm 4 mps 754 mmHg 77%
19:00 +29°C° 0 mm 3 mps 755 mmHg 80%
20:00 +29°C° 0 mm 2 mps 755 mmHg 81%
21:00 +29°C° 0 mm 2 mps 756 mmHg 82%
22:00 +28°C° 0 mm 2 mps 756 mmHg 84%
23:00 +28°C° 0 mm 1 mps 756 mmHg 85%

Tomorrow, 7 July, Tuesday

Time Temperature Precipitation Wind Pressure Humidity
00:00 +28°C° 0 mm 1 mps 756 mmHg 86%
01:00 +28°C° 0 mm 1 mps 756 mmHg 87%
02:00 +28°C° 0 mm 1 mps 755 mmHg 87%
03:00 +27°C° 0 mm 1 mps 755 mmHg 87%
04:00 +27°C° 0 mm 1 mps 755 mmHg 87%
05:00 +28°C° 0 mm 1 mps 756 mmHg 86%
06:00 +28°C° 0 mm 1 mps 756 mmHg 84%
07:00 +29°C° 0 mm 1 mps 756 mmHg 83%
08:00 +30°C° 0.1 mm 1 mps 756 mmHg 77%
09:00 +31°C° 0.1 mm 2 mps 756 mmHg 72%
10:00 +34°C° 0.1 mm 2 mps 756 mmHg 66%
11:00 +34°C° 0 mm 3 mps 756 mmHg 63%
12:00 +35°C° 0 mm 3 mps 756 mmHg 60%
13:00 +36°C° 0 mm 4 mps 755 mmHg 57%
14:00 +35°C° 0 mm 4 mps 755 mmHg 58%
15:00 +35°C° 0 mm 4 mps 755 mmHg 59%
16:00 +34°C° 0 mm 5 mps 754 mmHg 60%
17:00 +33°C° 0 mm 4 mps 755 mmHg 65%
18:00 +32°C° 0 mm 4 mps 755 mmHg 70%
19:00 +30°C° 0 mm 3 mps 755 mmHg 75%
20:00 +29°C° 0 mm 3 mps 756 mmHg 77%
21:00 +29°C° 0 mm 2 mps 756 mmHg 79%
22:00 +29°C° 0 mm 2 mps 757 mmHg 80%
23:00 +29°C° 0 mm 2 mps 757 mmHg 82%

Day after tomorrow, 8 July, Wednesday

Time Temperature Precipitation Wind Pressure Humidity
00:00 +28°C° 0 mm 1 mps 757 mmHg 83%
01:00 +28°C° 0 mm 1 mps 756 mmHg 84%
02:00 +28°C° 0 mm 1 mps 756 mmHg 85%
03:00 +28°C° 0 mm 1 mps 756 mmHg 85%
04:00 +28°C° 0 mm 1 mps 756 mmHg 86%
05:00 +28°C° 0 mm 1 mps 756 mmHg 85%
06:00 +28°C° 0 mm 1 mps 756 mmHg 84%
07:00 +29°C° 0 mm 1 mps 756 mmHg 82%
08:00 +30°C° 0 mm 1 mps 756 mmHg 75%
09:00 +32°C° 0 mm 1 mps 756 mmHg 68%
10:00 +34°C° 0 mm 1 mps 757 mmHg 60%
11:00 +34°C° 0 mm 1 mps 756 mmHg 57%
12:00 +36°C° 0 mm 2 mps 755 mmHg 53%
13:00 +37°C° 0 mm 2 mps 755 mmHg 49%
14:00 +36°C° 0.1 mm 2 mps 754 mmHg 53%
15:00 +35°C° 0.1 mm 2 mps 754 mmHg 57%
16:00 +35°C° 0.1 mm 2 mps 753 mmHg 60%
17:00 +32°C° 0.4 mm 2 mps 754 mmHg 66%
18:00 +31°C° 0.4 mm 2 mps 754 mmHg 71%
19:00 +30°C° 0.4 mm 2 mps 754 mmHg 77%
20:00 +30°C° 0 mm 2 mps 755 mmHg 79%
21:00 +29°C° 0 mm 2 mps 755 mmHg 80%
22:00 +29°C° 0 mm 2 mps 756 mmHg 82%
23:00 +28°C° 0 mm 2 mps 755 mmHg 83%

9 July, Thursday

Time Temperature Precipitation Wind Pressure Humidity
00:00 +28°C° 0 mm 1 mps 755 mmHg 84%
01:00 +28°C° 0 mm 1 mps 755 mmHg 84%
02:00 +28°C° 0 mm 1 mps 755 mmHg 85%
03:00 +28°C° 0 mm 1 mps 754 mmHg 85%
04:00 +27°C° 0 mm 1 mps 754 mmHg 85%
05:00 +28°C° 0 mm 1 mps 754 mmHg 84%
06:00 +26°C° 0 mm 0 mps 755 mmHg 83%
07:00 +27°C° 0 mm 0 mps 755 mmHg 82%
08:00 +30°C° 0 mm 1 mps 755 mmHg 76%
09:00 +32°C° 0 mm 1 mps 755 mmHg 70%
10:00 +33°C° 0 mm 1 mps 755 mmHg 64%
11:00 +34°C° 0 mm 1 mps 755 mmHg 60%
12:00 +35°C° 0 mm 1 mps 754 mmHg 55%
13:00 +36°C° 0 mm 1 mps 754 mmHg 51%
14:00 +36°C° 0 mm 1 mps 753 mmHg 53%
15:00 +36°C° 0 mm 2 mps 753 mmHg 55%
16:00 +36°C° 0 mm 2 mps 752 mmHg 56%
17:00 +34°C° 0.2 mm 2 mps 752 mmHg 63%
18:00 +32°C° 0.2 mm 2 mps 753 mmHg 69%
19:00 +31°C° 0.2 mm 2 mps 753 mmHg 75%
20:00 +30°C° 0.1 mm 2 mps 754 mmHg 77%
21:00 +30°C° 0.1 mm 2 mps 754 mmHg 79%
22:00 +29°C° 0.1 mm 2 mps 755 mmHg 81%
23:00 +29°C° 0 mm 2 mps 755 mmHg 83%

10 July, Friday

Time Temperature Precipitation Wind Pressure Humidity
00:00 +29°C° 0 mm 2 mps 755 mmHg 84%
01:00 +28°C° 0 mm 2 mps 755 mmHg 85%
02:00 +28°C° 0.8 mm 2 mps 754 mmHg 86%
03:00 +28°C° 0.8 mm 1 mps 754 mmHg 87%
04:00 +28°C° 0.8 mm 1 mps 754 mmHg 88%
05:00 +28°C° 0.2 mm 1 mps 754 mmHg 86%
06:00 +29°C° 0.2 mm 1 mps 755 mmHg 84%
07:00 +29°C° 0.2 mm 1 mps 755 mmHg 81%
08:00 +31°C° 0 mm 1 mps 755 mmHg 74%
09:00 +32°C° 0 mm 1 mps 755 mmHg 66%
10:00 +34°C° 0 mm 1 mps 755 mmHg 58%
11:00 +36°C° 0 mm 2 mps 755 mmHg 55%
12:00 +36°C° 0 mm 2 mps 755 mmHg 52%
13:00 +37°C° 0 mm 2 mps 754 mmHg 49%
14:00 +36°C° 0.2 mm 3 mps 754 mmHg 53%
15:00 +36°C° 0.2 mm 3 mps 754 mmHg 57%
16:00 +35°C° 0.2 mm 3 mps 753 mmHg 61%
17:00 +34°C° 0.3 mm 3 mps 754 mmHg 67%
18:00 +31°C° 0.3 mm 3 mps 754 mmHg 72%
19:00 +30°C° 0.3 mm 3 mps 754 mmHg 78%
20:00 +30°C° 0 mm 3 mps 755 mmHg 79%
21:00 +29°C° 0 mm 2 mps 755 mmHg 81%
22:00 +29°C° 0 mm 2 mps 756 mmHg 82%
23:00 +29°C° 0 mm 2 mps 756 mmHg 83%

11 July, Saturday

Time Temperature Precipitation Wind Pressure Humidity
00:00 +28°C° 0 mm 2 mps 755 mmHg 84%
01:00 +28°C° 0 mm 2 mps 755 mmHg 85%
02:00 +28°C° 0 mm 1 mps 755 mmHg 85%
03:00 +28°C° 0 mm 1 mps 755 mmHg 86%
04:00 +28°C° 0 mm 1 mps 754 mmHg 87%
05:00 +28°C° 0 mm 1 mps 755 mmHg 85%
06:00 +28°C° 0 mm 1 mps 755 mmHg 84%
07:00 +29°C° 0 mm 1 mps 756 mmHg 82%
08:00 +30°C° 0 mm 1 mps 756 mmHg 74%
09:00 +32°C° 0 mm 2 mps 756 mmHg 67%
10:00 +34°C° 0 mm 2 mps 756 mmHg 59%
11:00 +35°C° 0 mm 2 mps 756 mmHg 55%
12:00 +36°C° 0 mm 2 mps 755 mmHg 52%
13:00 +37°C° 0 mm 2 mps 755 mmHg 48%
14:00 +36°C° 0.2 mm 2 mps 754 mmHg 53%
15:00 +35°C° 0.2 mm 3 mps 754 mmHg 58%
16:00 +34°C° 0.2 mm 3 mps 753 mmHg 63%
17:00 +33°C° 0.5 mm 3 mps 754 mmHg 68%
18:00 +31°C° 0.5 mm 3 mps 755 mmHg 74%
19:00 +30°C° 0.5 mm 3 mps 755 mmHg 79%
20:00 +29°C° 0.1 mm 3 mps 756 mmHg 81%
21:00 +29°C° 0.1 mm 2 mps 756 mmHg 83%
22:00 +29°C° 0.1 mm 2 mps 757 mmHg 84%
23:00 +28°C° 0 mm 2 mps 756 mmHg 85%
Show more